Regional Weather Roundup
Issued by NWS

Home | Current Version | Previous Version | Graphics & Text | Print | Product List | Glossary On
Versions: 1 2 3 4 5 6 7 8 9 10 11 12 13 14 15 16 17 18 19 20 21 22 23 24 25 26 27 28 29 30 31 32 33 34 35 36 37 38 39 40 41 42 43 44 45 46 47 48 49 50
691
ASUS44 KLIX 191905
RWRLA
LOUISIANA WEATHER ROUNDUP
NATIONAL WEATHER SERVICE NEW ORLEANS LA
200 PM CDT SAT APR 19 2014

NOTE: "FAIR" INDICATES FEW OR NO CLOUDS BELOW 12,000 FEET WITH NO
      SIGNIFICANT WEATHER AND/OR OBSTRUCTIONS TO VISIBILITY.
      SKY/WX - SKY CONDITION AND SIGNIFICANT WEATHER.
      TMP - AIR TEMPERATURE.    DP   - DEWPOINT TEMPERATURE.
      RH  - RELATIVE HUMIDITY.  PRES - PRESSURE.
      HX  - HEAT INDEX.         WCI  - WIND CHILL INDEX.

*  THESE STATIONS ARE NOT NWS OR FAA STATIONS AND ARE NOT UNDER
   NWS QUALITY CONTROL.

LAZ040-048-061>063-065-066-069-192000-
SOUTHEAST LOUISIANA

CITY           SKY/WX    TMP DP  RH WIND       PRES   REMARKS
N.O. AUDUBON     N/A     77  57  49 MISG        N/A
N.O. INTL ARPT MOSUNNY   74  53  48 N8        30.14F
N.O. LAKEFRONT SUNNY     70  56  61 W10       30.14F
N.O. DOWNTOWN* FAIR      73  48  40 N6        30.14F
SLIDELL        MOSUNNY   76  49  38 NW9       30.12F
BATON ROUGE    SUNNY     78  52  40 VRB6      30.15F
BOOTHVILLE     SUNNY     67  53  61 N6        30.14F
BELLE CHASSE   MOSUNNY   75  50  41 VRB7      30.13F
BOGALUSA*        N/A     78  49  35 NE8       30.14S
GALLIANO*      CLEAR     75  56  50 NW5       30.14F
NEW ROADS*     FAIR      75  53  45 NW6       30.16F
GONZALES*      FAIR      75  52  43 CALM      30.14F
HAMMOND*       SUNNY     79  45  29 N8        30.15S
HOUMA*         SUNNY     75  48  38 N6        30.15F
PORT FOURCHON* CLEAR     72  54  53 NE7       30.16F

$$

LAZ041-044-053-054-192000-
SOUTHWEST LOUISIANA

CITY           SKY/WX    TMP DP  RH WIND       PRES   REMARKS
LAKE CHARLES   SUNNY     76  54  46 VRB6      30.16F
LAFAYETTE      SUNNY     77  51  40 VRB3      30.16F
PATTERSON      SUNNY     75  54  46 NE8       30.18F
SALT POINT       N/A     72  60  66 VRB5      30.14F
NEW IBERIA     SUNNY     78  51  38 VRB5      30.16F
CHENAULT AIRPK SUNNY     75  54  46 CALM      30.18F

$$

LAZ027-028-192000-
CENTRAL LOUISIANA

CITY           SKY/WX    TMP DP  RH WIND       PRES   REMARKS
FORT POLK      CLOUDY    75  53  46 NW3       30.17F
ALEXANDRIA INT SUNNY     76  53  44 VRB3      30.16F
ALEXANDRIA     MOSUNNY   78  50  37 VRB5      30.17F

$$

LAZ001-002-192000-
NORTHWEST LOUISIANA

CITY           SKY/WX    TMP DP  RH WIND       PRES   REMARKS
SHREVEPORT     MOSUNNY   76  51  41 SE6       30.17F
BARKSDALE AFB  PTSUNNY   75  53  45 VRB2      30.18F
DTN SHREVEPORT PTSUNNY   76  55  48 CALM      30.18F

$$

LAZ014-016-192000-
NORTHEAST LOUISIANA

CITY           SKY/WX    TMP DP  RH WIND       PRES   REMARKS
MONROE         SUNNY     75  51  43 VRB5      30.19F
TALLULAH       SUNNY     76  54  46 N6        30.17F

$$




USA.gov is the U.S. government's official web portal to all federal, state and local government web resources and services.